Location: Walsall
(52.5862°N, 1.9829°W)
Time: 01:52:01
(UTC+01:00)

X-37B - Pass Details

Date: 22 June 2021
Orbit: 383 x 392 km, 45.0° (Epoch: 01 July)

Event Time Altitude Azimuth Distance (km) Brightness Sun altitude
Exits shadow 02:43:00 15° 169° (S) 1,133 2.4 -11.3°
Drops below altitude 10° 02:44:11 10° 149° (SSE) 1,404 3.1 -11.2°
Sets 02:46:42 0° 129° (SE) 2,258 4.3 -11.1°
